Home   Weather   Osøyro   Past weeks

Flag for Norway Past Weather in Osøyro, Norway — Yesterday and Last 2 Weeks

Now
54 °F

Rain showers. Overcast.


Feels Like: 53 °F
Forecast: 53 / 60 °F
Wind: 5 mph from Southeast

Location: Bergen / Flesland

Current Time: Aug 20, 2017 at 2:41:59 am

Latest Report: Aug 20, 2017 at 2:00 am


Visibility: 17 mi

Pressure: 29.58 "Hg

Humidity: 99%

Dew Point: 54 °F

Location of OsøyroLocation

Past Weather in Osøyro — Graph

°F

Osøyro Temperature Yesterday

Maximum temperature yesterday: 60 °F (at 2:00 pm)
Minimum temperature yesterday: 54 °F (at 5:00 am)
Average temperature yesterday: 56 °F

High & Low Weather Summary for the Past Weeks

 TemperatureHumidityPressure
High67 °F (Aug 9, 2:00 pm)100% (Aug 12, 3:00 am)30.16 "Hg (Aug 12, 3:00 am)
Low44 °F (Aug 13, 5:00 am)52% (Aug 18, 5:00 pm)29.47 "Hg (Aug 19, 8:00 am)
Average56 °F87%29.85 "Hg
* Reported Aug 5 1:00 am — Aug 20 1:00 am, Osøyro. Weather by CustomWeather, © 2017

Note: Actual official high and low records may vary slightly from our data, if they occured in-between our weather recording intervals... More about our weather records

Advertising

Osøyro Weather History for the Previous 24 Hours

Scroll right to see more
 ConditionsComfort  
Time TempWeatherWind HumidityBarometerVisibility
1:00 am
Sun, Aug 20
54 °FLight rain. Low clouds.6 mph99%29.58 "Hg4 mi
12:00 am54 °FLight rain. Overcast.5 mph99%29.58 "Hg8 mi
11:00 pm
Sat, Aug 19
55 °FLight rain. Low clouds.6 mph99%29.57 "Hg7 mi
10:00 pm54 °FLight rain. Low clouds.6 mph100%29.57 "Hg2 mi
9:00 pm56 °FLots of rain. Overcast.6 mph96%29.56 "Hg6 mi
8:00 pm56 °FOvercast.7 mph96%29.55 "Hg12 mi
7:00 pm56 °FLots of rain. Overcast.8 mph95%29.55 "Hg7 mi
6:00 pm57 °FRain showers. Overcast.9 mph95%29.55 "Hg4 mi
5:00 pm59 °FRain showers. Overcast.9 mph84%29.53 "Hg14 mi
4:00 pm58 °FOvercast.7 mph88%29.50 "Hg19 mi
3:00 pm57 °FRain showers. Overcast.6 mph93%29.50 "Hg16 mi
2:00 pm60 °FScattered clouds.7 mph77%29.50 "Hg19 mi
1:00 pm56 °FRain showers. Low clouds.6 mph98%29.47 "Hg16 mi
12:00 pm54 °FRain. Low clouds.8 mph95%29.47 "Hg3 mi
11:00 am55 °FRain. Overcast.8 mph88%29.47 "Hg6 mi
10:00 am57 °FOvercast.12 mph73%29.47 "Hg17 mi
9:00 amN/AScattered clouds.N/AN/AN/A19 mi
8:00 am57 °FPassing clouds.7 mph70%29.47 "Hg25 mi
7:00 am55 °FSunny.7 mph74%29.50 "Hg31 mi
6:00 am54 °FPassing clouds.5 mph81%29.53 "Hg28 mi
5:00 am54 °FClear.3 mph91%29.54 "Hg22 mi
4:00 am55 °FPassing clouds.5 mph91%29.56 "Hg19 mi
3:00 am55 °FPassing clouds.3 mph94%29.58 "Hg16 mi
2:00 am56 °FOvercast.3 mph90%29.59 "Hg17 mi
Weather by CustomWeather, © 2017

See weather overviewHow to use our weather pages